# From MPC 59600 2P/Encke,e,11.7843,334.5718,186.5242,2.215386,0.2989028,0.84826493,295.8823,01/04.0/2010,2000,g 11.5,6.0 # From MPC 54170 7P/Pons-Winnecke,e,22.3092,93.4195,172.3079,3.430926,0.1550911,0.63471623,72.0317,01/04.0/2010,2000,g 10.0,6.0 # From MPC 61707 8P/Tuttle,e,54.9708,270.3486,207.5121,5.694925,0.0725224,0.81947117,51.3618,01/04.0/2010,2000,g 8.0,8.0 # From MPC 62880 9P/Tempel,e,10.5226,68.9190,178.9252,3.124385,0.1784667,0.51673213,293.3701,01/04.0/2010,2000,g 5.5,10.0 # From MPC 59600 10P/Tempel,e,12.0225,117.8262,195.6532,3.067994,0.1834097,0.53625135,326.6376,01/04.0/2010,2000,g 5.0,10.0 # From MPC 56802 14P/Wolf,e,27.9437,202.1176,159.0240,4.242558,0.1127879,0.35783211,35.0352,01/04.0/2010,2000,g 5.5,12.0 # From MPC 51822 17P/Holmes,e,19.1145,326.8536,24.3499,3.620627,0.1430634,0.43287246,139.4847,01/04.0/2010,2000,g 10.0,6.0 # From MPC 66205 22P/Kopff,e,4.7235,120.8888,162.7883,3.461440,0.1530449,0.54435194,34.2254,01/04.0/2010,2000,g 3.0,10.4 # From MPC 56804 24P/Schaumasse,e,11.7293,79.7161,57.9951,4.095167,0.1189314,0.70358029,17.5282,01/04.0/2010,2000,g 6.5,14.0 # From MPC 42666 29P/Schwassmann-Wachmann,e,9.3930,312.6345,48.7702,5.989072,0.0672457,0.04513787,134.8177,01/04.0/2010,2000,g 4.0,4.0 # From MPC 59599 30P/Reinmuth,e,8.1224,119.7544,13.2123,3.775213,0.1343668,0.50093900,345.8165,01/04.0/2010,2000,g 9.5,6.0 # From MPC 59600 31P/Schwassmann-Wachmann,e,4.5473,114.1900,17.9936,4.240044,0.1128882,0.19242037,329.6479,01/04.0/2010,2000,g 5.0,8.0 # From MPC 62883 36P/Whipple,e,9.9358,182.3954,201.8816,4.165012,0.1159524,0.25872792,275.7820,01/04.0/2010,2000,g 8.5,6.0 # From MPC 59600 43P/Wolf-Harrington,e,15.9650,249.9078,191.4419,3.349269,0.1607974,0.59462743,331.2628,01/04.0/2010,2000,g 8.0,6.0 # From MPC 60465 44P/Reinmuth,e,5.9030,286.6006,58.1605,3.687697,0.1391782,0.42848072,95.4059,01/04.0/2010,2000,g 8.3,6.0 # From MPC 56802 47P/Ashbrook-Jackson,e,13.0530,356.9821,357.7233,4.110908,0.1182490,0.31901597,39.8376,01/04.0/2010,2000,g 1.0,11.2 # From MPC 62882 49P/Arend-Rigaux,e,19.0872,118.9407,332.9242,3.556757,0.1469342,0.60110519,264.0440,01/04.0/2010,2000,g 11.3,4.4 # From MPC 66922 54P/de Vico-Swift-NEAT,e,6.0685,358.8532,1.9061,3.787897,0.1336924,0.42659527,4.8809,01/04.0/2010,2000,g 10.0,6.0 # From MPC 64498 59P/Kearns-Kwee,e,9.3405,313.0354,127.5261,4.489393,0.1036150,0.47534241,31.3285,01/04.0/2010,2000,g 7.0,6.0 # From MPC 63377 61P/Shajn-Schaldach,e,6.0095,163.1087,221.6727,3.678309,0.1397114,0.42685050,67.7277,01/04.0/2010,2000,g 6.0,10.0 # From MPC 66706 64P/Swift-Gehrels,e,8.9510,300.7432,96.3147,4.437335,0.1054437,0.68966432,21.4716,01/04.0/2010,2000,g 8.5,12.0 # From MPC 59598 65P/Gunn,e,10.3865,68.3568,196.6319,3.585557,0.1451674,0.31938886,351.7077,01/04.0/2010,2000,g 5.0,6.0 # From MPC 56802 67P/Churyumov-Gerasimenko,e,7.0413,50.1884,12.7019,3.464920,0.1528144,0.64031307,47.3141,01/04.0/2010,2000,g 11.0,4.0 # From MPC 56802 68P/Klemola,e,11.1446,175.3268,153.9915,4.892791,0.0910687,0.64041569,31.6944,01/04.0/2010,2000,g 10.0,4.0 # From MPC 56804 74P/Smirnova-Chernykh,e,6.6476,77.0919,87.1876,4.172858,0.1156255,0.14745020,18.2773,01/04.0/2010,2000,g 5.0,6.0 # From MPC 56804 77P/Longmore,e,24.3990,14.9174,196.6995,3.598481,0.1443860,0.35795451,26.0097,01/04.0/2010,2000,g 7.0,8.0 # From MPC 67148 81P/Wild,e,3.2374,136.0974,41.7948,3.454499,0.1535064,0.53739985,352.3701,01/04.0/2010,2000,g 7.0,6.0 # From MPC 59598 82P/Gehrels,e,1.1261,239.5100,226.2674,4.139313,0.1170339,0.12222751,359.0542,01/04.0/2010,2000,g 5.0,8.0 # From MPC 54171 85P/Boethin,e,4.2170,343.4491,53.5895,5.109822,0.0853288,0.77546671,32.7313,01/04.0/2010,2000,g 6.5,8.0 # From MPC 66205 88P/Howell,e,4.3817,56.7529,235.9600,3.113364,0.1794152,0.56206606,14.9878,01/04.0/2010,2000,g 11.0,6.0 # From MPC 56804 89P/Russell,e,12.0321,42.3614,249.3256,3.798552,0.1331303,0.39983407,18.6233,01/04.0/2010,2000,g 11.5,6.0 # From MPC 59599 94P/Russell,e,6.1823,70.9180,92.8489,3.517368,0.1494092,0.36308899,347.3349,01/04.0/2010,2000,g 9.0,6.0 # From MPC 62881 97P/Metcalf-Brewington,e,17.8773,185.2536,228.6788,4.789504,0.0940304,0.45956850,303.9998,01/04.0/2010,2000,g 5.5,6.0 # From MPC 51821 99P/Kowal,e,4.3323,28.2166,174.5096,6.148928,0.0646405,0.22929293,69.2505,01/04.0/2010,2000,g 4.5,6.0 # From MPC 56805 100P/Hartley,e,25.6545,37.8449,181.7084,3.409714,0.1565407,0.41859990,4.5164,01/04.0/2010,2000,g 9.0,8.0 # From MPC 59599 104P/Kowal,e,10.2678,235.5202,200.5426,3.261368,0.1673418,0.63828611,339.8146,01/04.0/2010,2000,g 12.5,4.0 # From MPC 54167 110P/Hartley,e,11.6797,287.7292,167.6596,3.616878,0.1432858,0.31260815,100.4323,01/04.0/2010,2000,g 1.0,12.0 # From MPC 62583 116P/Wild,e,3.6130,21.0339,173.5826,3.476784,0.1520329,0.37443820,25.7181,01/04.0/2010,2000,g 2.5,10.0 # From MPC 45658 117P/Helin-Roman-Alu,e,8.7015,58.9311,223.0283,4.087234,0.1192778,0.25509326,175.9580,01/04.0/2010,2000,g 2.5,8.0 # From MPC 66922 118P/Shoemaker-Levy,e,8.5094,151.8072,302.1445,3.464448,0.1528456,0.42734769,0.2582,01/04.0/2010,2000,g 12.0,4.0 # From MPC 52907 119P/Parker-Hartley,e,5.1920,244.0741,181.0851,4.283038,0.1111927,0.29083924,187.5950,01/04.0/2010,2000,g 3.5,8.0 # From MPC 62881 123P/West-Hartley,e,15.3544,46.6017,102.7883,3.858107,0.1300597,0.44786625,288.9165,01/04.0/2010,2000,g 4.0,10.0 # From MPC 54168 124P/Mrkos,e,31.4879,1.1203,181.7612,3.215729,0.1709169,0.54241313,105.3445,01/04.0/2010,2000,g 13.5,2.8 # From MPC 66205 126P/IRAS,e,45.8294,357.7611,356.7343,5.647427,0.0734392,0.69660656,356.3519,01/04.0/2010,2000,g 6.0,8.0 # From MPC 67414 127P/Holt-Olmstead,e,14.3218,13.6846,6.5425,3.443232,0.1542604,0.36230890,11.5122,01/04.0/2010,2000,g 11.0,6.0 # From MPC 51822 128P/Shoemaker-Holt,e,4.3585,214.3648,210.3538,4.510596,0.1028853,0.32054599,96.2508,01/04.0/2010,2000,g 8.5,4.0 # From MPC 50140 129P/Shoemaker-Levy,e,1.7746,217.8195,291.6404,3.859323,0.1299982,0.25945505,184.1903,01/04.0/2010,2000,g 11.0,4.0 # From MPC 60282 136P/Mueller,e,9.4274,137.5519,225.0169,4.192565,0.1148112,0.29353998,92.3114,01/04.0/2010,2000,g 11.0,4.0 # From MPC 56803 137P/Shoemaker-Levy,e,4.8534,233.1192,140.8308,4.502227,0.1031723,0.57455555,24.2864,01/04.0/2010,2000,g 11.0,4.0 # From MPC 60666 139P/Vaisala-Oterma,e,2.3287,242.4255,165.5955,4.520418,0.1025501,0.24726359,64.0172,01/04.0/2010,2000,g 9.5,4.0 # From MPC 59599 142P/Ge-Wang,e,12.3029,176.5253,175.7984,4.973638,0.0888573,0.49981980,346.9579,01/04.0/2010,2000,g 8.5,6.0 # From MPC 56803 143P/Kowal-Mrkos,e,4.6902,245.3670,320.7641,4.299264,0.1105638,0.40960498,22.7543,01/04.0/2010,2000,g 13.5,2.0 # From MPC 64498 144P/Kushida,e,4.1098,245.5492,216.0788,3.865094,0.1297072,0.62780738,44.3806,01/04.0/2010,2000,g 8.5,8.0 # From MPC 56803 145P/Shoemaker-Levy,e,11.2990,26.8972,10.1635,4.132751,0.1173127,0.54232229,33.2394,01/04.0/2010,2000,g 13.5,4.0 # From MPC 59598 149P/Mueller,e,29.7350,145.2659,43.7697,4.335356,0.1091860,0.38853372,354.9537,01/04.0/2010,2000,g 8.0,8.0 # From MPC 54170 150P/LONEOS,e,18.4994,272.4280,245.6740,3.890807,0.1284235,0.54557832,51.8896,01/04.0/2010,2000,g 13.5,4.0 # From MPC 65938 152P/Helin-Lawrence,e,9.8689,91.9528,163.9090,4.498343,0.1033059,0.30803237,265.2194,01/04.0/2010,2000,g 11.5,4.0 # From MPC 66922 157P/Tritton,e,7.2775,300.1078,148.7460,3.409566,0.1565508,0.60107405,352.5584,01/04.0/2010,2000,g 10.0,4.0 # From MPC 65939 158P/Kowal-LINEAR,e,7.9085,137.3089,231.5503,4.719334,0.0961353,0.02944982,265.2603,01/04.0/2010,2000,g 9.0,4.0 # From MPC 59599 162P/Siding Spring,e,27.8159,31.2412,356.3052,3.053035,0.1847594,0.59611874,348.2822,01/04.0/2010,2000,g 12.0,4.0 # From MPC 62880 164P/Christensen,e,16.2666,88.3628,325.9236,3.649541,0.1413665,0.54133314,287.2616,01/04.0/2010,2000,g 11.0,4.0 # From MPC 54366 166P/NEAT,e,15.3682,64.4283,321.5725,13.83829,0.0191461,0.38244312,53.4209,01/04.0/2010,2000,g 5.5,4.0 # From MPC 54367 167P/CINEOS,e,19.0897,295.7768,344.7716,16.27484,0.0150117,0.27360402,47.3339,01/04.0/2010,2000,g 9.5,2.0 # From MPC 56805 169P/NEAT,e,11.2999,176.1885,217.9614,2.606091,0.2342717,0.76679726,8.1282,01/04.0/2010,2000,g 16.0,2.0 # From MPC 54825 172P/Yeung,e,11.5188,39.9408,179.3842,3.519403,0.1492796,0.36297842,66.7680,01/04.0/2010,2000,g 13.0,4.0 # From MPC 54987 173P/Mueller,e,16.4937,100.5442,29.6554,5.698618,0.0724519,0.26076765,43.2566,01/04.0/2010,2000,g 7.5,4.0 # From CCO 17 174P/Echeclus,e,4.3410,173.3902,162.6014,10.75050,0.0279615,0.45801843,306.0136,01/04.0/2010,2000,g 9.5,2.0 # From CCO 17 176P/LINEAR,e,0.2378,346.5055,35.9710,3.192840,0.1727581,0.19345491,265.9068,01/04.0/2010,2000,g 15.0,2.0 # From MPC 66205 179P/Jedicke,e,19.8716,115.8466,295.4755,5.912477,0.0685567,0.30887266,52.2916,01/04.0/2010,2000,g 2.5,8.0 # From MPC 62583 180P/NEAT,e,16.9036,84.7409,95.0969,3.845755,0.1306868,0.35723822,76.7064,01/04.0/2010,2000,g 11.0,4.0 # From MPC 58540 183P/Korlevic-Juric,e,18.7369,5.8488,161.4384,4.500513,0.1032312,0.13492175,62.6306,01/04.0/2010,2000,g 12.5,2.0 # From MPC 59045 186P/Garradd,e,28.8684,327.7730,282.6454,4.896477,0.0909659,0.12598700,56.4948,01/04.0/2010,2000,g 7.5,4.0 # From MPC 62583 187P/LINEAR,e,13.7197,111.9998,132.6223,4.466578,0.1044099,0.17252771,46.9941,01/04.0/2010,2000,g 9.0,4.0 # From MPC 61438 195P/Hill,e,36.3621,243.2270,249.5837,6.477062,0.0597912,0.31477755,20.8276,01/04.0/2010,2000,g 8.5,4.0 # From MPC 62272 197P/LINEAR,e,25.5499,66.3896,188.7857,2.865177,0.2032249,0.62970247,120.9430,01/04.0/2010,2000,g 16.5,2.0 # From MPC 66205 199P/Shoemaker,e,24.7359,92.8785,191.9153,5.974926,0.0674847,0.50886025,18.1805,01/04.0/2010,2000,g 10.0,4.0 # From MPC 63139 200P/Larsen,e,12.1181,234.8143,133.8235,4.911074,0.0905606,0.33358077,44.9481,01/04.0/2010,2000,g 9.0,4.0 # From MPC 64116 202P/Scotti,e,2.1852,194.5665,255.5499,3.777129,0.1342645,0.33103392,44.4459,01/04.0/2010,2000,g 13.5,4.0 # From MPC 63822 203P/Korlevic,e,2.9759,290.5643,154.5441,4.645907,0.0984234,0.31506903,356.5361,01/04.0/2010,2000,g 14.5,2.0 # From MPC 64498 209P/LINEAR,e,19.1490,66.3994,149.7739,2.938074,0.1957087,0.68913623,51.4679,01/04.0/2010,2000,g 17.0,2.0 # From MPC 64768 211P/Hill,e,18.8712,117.2929,4.3694,3.565971,0.1463650,0.33766104,35.3200,01/04.0/2010,2000,g 12.5,4.0 # From MPC 65058 213P/Van Ness,e,10.2397,312.6870,3.2302,3.423453,0.1555993,0.37974290,277.8443,01/04.0/2010,2000,g 10.5,4.0 # From MPC 65058 214P/LINEAR,e,15.2137,348.2567,190.3049,3.606086,0.1439295,0.48852272,52.2987,01/04.0/2010,2000,g 13.0,4.0 # From MPC 67148 215P/NEAT,e,12.7911,75.4441,222.4199,4.021186,0.1222286,0.20086744,341.0682,01/04.0/2010,2000,g 11.0,4.0 # From MPC 65648 217P/LINEAR,e,12.8815,125.6211,246.7486,3.942729,0.1258951,0.68955221,14.7336,01/04.0/2010,2000,g 12.0,4.0 # From MPC 65936 218P/LINEAR,e,18.1506,226.7302,10.6412,3.339443,0.1615076,0.49046739,31.6008,01/04.0/2010,2000,g 16.0,4.0 # From MPC 65936 219P/LINEAR,e,11.5201,231.0714,107.7758,3.655296,0.1410328,0.35318708,351.4203,01/04.0/2010,2000,g 11.0,4.0 # From MPC 65936 220P/McNaught,e,8.1327,150.1181,180.7575,3.113947,0.1793648,0.50268117,3.5098,01/04.0/2010,2000,g 15.0,4.0 # From MPC 66206 221P/LINEAR,e,11.4217,229.9911,39.6559,3.477664,0.1519752,0.48739601,52.3166,01/04.0/2010,2000,g 14.5,4.0 # From MPC 66706 222P/LINEAR,e,5.1478,7.1181,345.4383,2.858304,0.2039584,0.72703105,25.4746,01/04.0/2010,2000,g 20.0,4.0 # From MPC 66922 223P/Skiff,e,27.0542,346.8278,37.9245,4.153975,0.1164148,0.41760929,334.0715,01/04.0/2010,2000,g 12.0,4.0 # From MPC 66922 224P/LINEAR-NEAT,e,13.4361,40.5285,16.0912,3.409052,0.1565862,0.41637891,355.6422,01/04.0/2010,2000,g 15.5,4.0 # From MPC 66923 225P/LINEAR,e,21.3964,14.2241,3.8322,3.644492,0.1416604,0.63924267,18.6234,01/04.0/2010,2000,g 18.0,4.0 # From MPC 67148 226P/Pigott-LINEAR-Kowalski,e,44.0212,54.0678,340.9630,3.764154,0.1349594,0.52998556,32.0864,01/04.0/2010,2000,g 12.5,4.0 # From MPC 67148 227P/Catalina-LINEAR,e,6.5248,49.8858,90.1393,3.588714,0.1449759,0.49986938,324.8111,01/04.0/2010,2000,g 16.5,2.0 # From MPC 67414 228P/LINEAR,e,7.9160,31.0709,114.9119,4.164954,0.1159548,0.17641244,290.6959,01/04.0/2010,2000,g 14.5,2.0 # From MPC 61436 C/1995 O1 (Hale-Bopp),e,89.2741,282.7984,130.5577,179.9201,0.0004084,0.99494913,0.0000,03/31.3492/1997,2000,g -2.0,4.0 # From MPC 31893 P/1996 A1 (Jedicke),e,6.6116,248.9746,223.9140,7.214186,0.0508655,0.43489501,269.1038,01/04.0/2010,2000,g 7.0,4.0 # From MPC 34421 P/1998 U3 (Jager),e,19.0736,303.4905,180.9435,6.103235,0.0653678,0.64698802,259.7550,01/04.0/2010,2000,g 6.5,4.0 # From MPC 65938 P/1998 U4 (Spahr),e,31.6530,181.3875,251.6693,5.596970,0.0744345,0.31181159,297.6711,01/04.0/2010,2000,g 8.0,4.0 # From MPC 54169 P/1998 VS24 (LINEAR),e,5.0267,159.1698,244.4575,4.520777,0.1025379,0.24289596,60.3772,01/04.0/2010,2000,g 13.0,2.0 # From MPC 59600 P/1999 U3 (LINEAR),e,20.8867,305.9864,110.1262,4.945370,0.0896202,0.61147081,342.4827,01/04.0/2010,2000,g 13.5,4.0 # From MPC 56804 P/1999 XB69 (LINEAR),e,11.3058,256.0484,220.3234,4.474949,0.1041171,0.63082131,16.8775,01/04.0/2010,2000,g 17.5,2.0 # From MPC 54170 P/1999 XN120 (Catalina),e,5.0250,285.4414,161.5865,4.188269,0.1149879,0.21120944,48.0198,01/04.0/2010,2000,g 13.5,2.0 # From MPC 65937 P/2000 Y3 (Scotti),e,2.2676,354.3342,90.3891,4.946072,0.0896011,0.20427901,294.3996,01/04.0/2010,2000,g 9.0,4.0 # From MPC 59599 P/2001 R6 (LINEAR-Skiff),e,17.3853,67.3328,308.4436,4.172588,0.1156367,0.47787452,350.6196,01/04.0/2010,2000,g 13.0,4.0 # From MPC 56803 P/2002 Q1 (Van Ness),e,36.2802,173.9937,185.0407,3.557752,0.1468725,0.56392859,42.4497,01/04.0/2010,2000,g 13.0,4.0 # From MPC 59874 C/2002 VQ94 (LINEAR),e,70.5828,34.9913,100.0490,187.9769,0.0003824,0.96384408,0.5460,01/04.0/2010,2000,g 9.5,2.0 # From MPC 59600 P/2002 X2 (NEAT),e,23.5326,75.0111,351.7898,3.867834,0.1295693,0.44998662,324.5309,01/04.0/2010,2000,g 12.0,4.0 # From MPC 62880 P/2003 CP7 (LINEAR-NEAT),e,12.3290,133.0991,42.6131,4.022529,0.1221674,0.24625812,299.0669,01/04.0/2010,2000,g 14.5,2.0 # From MPC 49277 P/2003 HT15 (LINEAR),e,27.6479,81.4461,124.2324,4.619247,0.0992767,0.41803992,243.9500,01/04.0/2010,2000,g 14.0,2.0 # From MPC 56169 C/2003 WT42 (LINEAR),e,31.4442,48.4378,92.3961,5672,0.0000023,0.99908546,0.0000,04/09.5856/2006,2000,g 11.5,2.0 # From MPC 60921 P/2004 A1 (LONEOS),e,10.5515,124.9744,21.8410,7.952972,0.0439450,0.31008072,85.6053,01/04.0/2010,2000,g 6.5,4.0 # From MPC 57131 C/2004 B1 (LINEAR),h,02/07.5561/2006,114.0880,272.8732,328.0408,1.001207,1.608429,2000,10.5,2.0 # From MPC 63599 C/2004 D1 (NEAT),e,45.5753,62.2350,75.4933,2776,0.0000067,0.99820889,0.0000,02/09.7505/2006,2000,g 11.5,2.0 # From MPC 57793 P/2004 F3 (NEAT),e,15.9778,78.8178,176.4275,4.022684,0.1221603,0.28564904,223.0355,01/04.0/2010,2000,g 9.0,4.0 # From MPC 54823 P/2004 FY140 (LINEAR),e,2.1266,327.1793,239.4604,4.934764,0.0899093,0.16694266,178.2392,01/04.0/2010,2000,g 12.5,2.0 # From MPC 61702 C/2005 EL173 (LONEOS),h,03/05.0280/2007,130.6735,344.8129,261.4873,1.001540,3.888912,2000,11.5,2.0 # From MPC 56805 P/2005 JQ5 (Catalina),e,5.6954,95.8324,222.7430,2.691894,0.2231604,0.69423480,1.3725,01/04.0/2010,2000,g 17.5,4.0 # From MPC 54559 P/2005 L1 (McNaught),e,7.7358,138.3037,149.9551,3.980523,0.1241063,0.20853531,183.8664,01/04.0/2010,2000,g 9.5,4.0 # From MPC 59596 C/2005 L3 (McNaught),h,01/16.9372/2008,139.4477,288.7575,47.1949,1.000916,5.594782,2000,4.0,4.0 # From MPC 55978 P/2005 RV25 (LONEOS-Christensen),e,9.8876,246.8783,191.2061,4.320612,0.1097454,0.16665958,126.9117,01/04.0/2010,2000,g 9.5,4.0 # From MPC 54987 P/2005 S2 (Skiff),e,3.1410,161.2031,229.9520,7.983879,0.0436901,0.19863322,56.0657,01/04.0/2010,2000,g 7.5,4.0 # From MPC 60464 C/2005 S4 (McNaught),e,107.9589,318.2889,31.5871,10390,0.0000009,0.99943653,0.0000,07/19.9712/2007,2000,g 5.0,4.0 # From MPC 61994 P/2005 SB216 (LONEOS),e,24.1182,1.6744,83.3928,7.105573,0.0520362,0.46359723,55.0670,01/04.0/2010,2000,g 12.0,2.0 # From MPC 65935 C/2006 E1 (McNaught),h,01/07.9768/2007,83.1815,95.0508,232.8998,1.003313,6.044566,2000,6.0,4.0 # From MPC 60465 P/2006 F1 (Kowalski),e,21.2750,124.7595,186.7775,4.675073,0.0975038,0.11867304,66.8113,01/04.0/2010,2000,g 8.0,4.0 # From MPC 62270 C/2006 K1 (McNaught),h,07/20.9332/2007,53.8492,72.1128,296.4795,1.002992,4.426379,2000,7.5,4.0 # From MPC 62270 C/2006 K4 (NEAT),e,111.3342,116.6117,233.6735,2437,0.0000082,0.99869088,0.0000,11/29.6643/2007,2000,g 6.0,4.0 # From MPC 62270 C/2006 OF2 (Broughton),h,09/15.7611/2008,30.1680,318.5064,95.6209,1.001474,2.431263,2000,5.5,4.0 # From MPC 61994 C/2006 Q1 (McNaught),e,59.0539,199.5564,344.3644,3235,0.0000054,0.99914570,0.0000,07/03.7527/2008,2000,g 5.0,4.0 # From MPC 61702 C/2006 S3 (LONEOS),h,04/16.6943/2012,166.0291,38.3385,140.0641,1.000994,5.135503,2000,2.0,4.0 # From MPC 60465 C/2006 S5 (Hill),e,10.1323,281.5207,182.0596,95.17198,0.0010615,0.97239564,0.0000,12/09.5994/2007,2000,g 8.0,4.0 # From MPC 66204 C/2006 U6 (Spacewatch),e,84.8981,180.1828,276.5942,2734,0.0000069,0.99908652,0.0000,06/05.5682/2008,2000,g 8.0,4.0 # From MPC 62580 C/2006 V1 (Catalina),e,31.3789,335.5236,253.2847,176.2022,0.0004214,0.98484967,0.0000,11/24.4362/2007,2000,g 8.0,4.0 # From MPC 61436 C/2006 W3 (Christensen),h,07/06.6278/2009,127.0548,113.5828,133.5167,1.000373,3.126094,2000,5.0,4.0 # From MPC 66700 C/2007 B2 (Skiff),e,27.4979,14.8208,206.1423,815.0105,0.0000424,0.99634644,0.0000,08/21.1140/2008,2000,g 6.0,4.0 # From MPC 61436 C/2007 D1 (LINEAR),e,41.5474,171.0936,339.9941,1677,0.0000144,0.99475800,0.0000,06/15.5271/2007,2000,g 3.5,4.0 # From MPC 66464 C/2007 G1 (LINEAR),h,11/16.3509/2008,88.3268,79.0023,224.0007,1.001664,2.647468,2000,5.5,4.0 # From MPC 62270 P/2007 H1 (McNaught),e,11.8749,144.3643,202.7364,3.671340,0.1401093,0.37838973,121.8808,01/04.0/2010,2000,g 10.0,4.0 # From MPC 63599 C/2007 K3 (Siding Spring),h,04/21.5510/2008,16.2974,263.2543,23.5820,1.000430,2.051661,2000,9.5,4.0 # From MPC 63376 C/2007 M1 (McNaught),e,139.7209,326.8070,52.7011,1833,0.0000126,0.99592029,0.0000,08/12.7555/2008,2000,g 6.0,4.0 # From MPC 61437 C/2007 M2 (Catalina),e,80.9543,357.2910,220.6707,2276,0.0000091,0.99844411,0.0000,12/08.5384/2008,2000,g 8.0,4.0 # From MPC 65054 C/2007 N3 (Lulin),e,178.3738,338.5489,136.8603,780817,0.0000000,0.99999845,0.0000,01/10.6469/2009,2000,g 6.5,4.0 # From MPC 61437 C/2007 Q3 (Siding Spring),h,10/07.2644/2009,65.6502,149.4132,2.0880,1.000208,2.251633,2000,4.5,4.0 # From MPC 65645 P/2007 R1 (Larson),e,7.8742,181.6407,175.3125,6.035437,0.0664723,0.27851674,57.3646,01/04.0/2010,2000,g 8.0,4.0 # From MPC 64767 C/2007 S2 (Lemmon),e,16.8563,296.2218,210.3846,12.52505,0.0222349,0.55635404,10.6134,01/04.0/2010,2000,g 6.5,4.0 # From MPC 65935 C/2007 T5 (Gibbs),e,45.6152,109.8298,34.3636,46.15928,0.0031428,0.91230159,1.8548,01/04.0/2010,2000,g 8.0,4.0 # From MPC 66921 C/2007 U1 (LINEAR),h,08/07.1864/2008,157.8021,50.1810,1.1232,1.001143,3.331797,2000,9.0,4.0 # From MPC 63821 C/2007 VO53 (Spacewatch),e,86.9914,59.7405,75.0226,21412,0.0000003,0.99977383,0.0000,04/26.4259/2010,2000,g 7.0,4.0 # From MPC 63599 C/2007 W1 (Boattini),e,9.8888,334.5144,306.5755,19752,0.0000004,0.99995694,0.0000,06/24.8060/2008,2000,g 9.5,4.0 # From MPC 62271 C/2007 Y2 (McNaught),e,98.4949,303.4693,257.7595,960.7661,0.0000331,0.99561599,0.0000,04/08.6250/2008,2000,g 9.0,4.0 # From MPC 65935 C/2008 A1 (McNaught),h,09/29.0928/2008,82.5438,277.8961,348.4764,1.000346,1.073510,2000,6.5,4.0 # From MPC 65645 P/2008 CL94 (Lemmon),e,8.3530,33.4527,81.4037,6.163479,0.0644118,0.11966614,83.1340,01/04.0/2010,2000,g 8.0,4.0 # From MPC 64113 C/2008 E1 (Catalina),e,35.0439,189.0071,269.9825,10.69884,0.0281643,0.54869649,14.3705,01/04.0/2010,2000,g 7.0,4.0 # From MPC 62879 C/2008 E3 (Garradd),e,105.0774,105.6817,218.1480,2847,0.0000065,0.99805694,0.0000,08/02.7267/2008,2000,g 6.0,4.0 # From MPC 64767 C/2008 FK75 (Lemmon-Siding Spring),h,09/29.1009/2010,61.1718,218.2614,80.4009,1.002965,4.511274,2000,5.0,4.0 # From MPC 63136 C/2008 G1 (Gibbs),e,72.8479,215.9177,63.7571,349.5095,0.0001508,0.98858561,0.0000,01/12.2418/2009,2000,g 9.5,4.0 # From MPC 65054 C/2008 J1 (Boattini),e,61.7635,273.4225,68.1475,171.0248,0.0004407,0.98991479,0.0000,07/13.3134/2008,2000,g 10.0,4.0 # From MPC 63376 P/2008 J2 (Beshore),e,10.2519,98.1538,131.4777,3.477450,0.1519892,0.31000364,99.4997,01/04.0/2010,2000,g 9.0,4.0 # From MPC 66921 P/2008 J3 (McNaught),e,25.3990,9.8528,4.4463,3.893175,0.1283064,0.41246816,38.3862,01/04.0/2010,2000,g 12.0,4.0 # From MPC 65935 C/2008 N1 (Holmes),e,115.5209,357.4716,100.8185,1039,0.0000294,0.99732160,0.0000,09/25.9042/2009,2000,g 9.0,4.0 # From MPC 66921 P/2008 O2 (McNaught),e,9.5184,325.8593,27.5013,4.490033,0.1035928,0.15278928,26.6427,01/04.0/2010,2000,g 9.0,4.0 # From MPC 64114 C/2008 P1 (Garradd),h,07/22.9634/2009,64.3137,357.6789,11.8694,1.001321,3.896266,2000,7.0,4.0 # From MPC 65935 C/2008 Q1 (Maticic),e,118.6339,9.3043,104.4953,641.2405,0.0000607,0.99538504,0.0000,12/30.2172/2008,2000,g 10.0,4.0 # From MPC 66204 C/2008 Q3 (Garradd),e,140.7079,219.7372,340.8627,10004,0.0000010,0.99982026,0.0000,06/23.1056/2009,2000,g 10.0,4.0 # From MPC 66921 C/2008 S3 (Boattini),h,06/05.0724/2011,162.7015,54.9322,39.8102,1.000839,8.020098,2000,4.0,4.0 # From MPC 67413 P/2008 T1 (Boattini),e,2.0829,291.7676,35.9885,4.235136,0.1130845,0.28109179,76.5726,01/04.0/2010,2000,g 11.0,4.0 # From MPC 66921 C/2008 T2 (Cardinal),h,06/13.2364/2009,56.3035,309.6784,215.8756,1.000102,1.202372,2000,6.0,4.0 # From MPC 66204 P/2008 WZ96 (LINEAR),e,6.9574,59.1013,337.6473,3.359368,0.1600729,0.50993163,55.2309,01/04.0/2010,2000,g 13.5,4.0 # From MPC 65936 P/2008 Y3 (McNaught),e,38.8122,262.9165,238.2465,8.023335,0.0433682,0.44737440,15.5002,01/04.0/2010,2000,g 8.5,4.0 # From MPC 65058 P/2009 B1 (Boattini),e,22.2268,297.4344,128.6031,6.696932,0.0568709,0.63766246,18.8672,01/04.0/2010,2000,g 13.0,4.0 # From MPC 65647 C/2009 B2 (LINEAR),e,156.8750,18.8234,192.4929,41.98451,0.0036230,0.94456669,1.0964,01/04.0/2010,2000,g 12.5,4.0 # From MPC 66465 C/2009 E1 (Itagaki),e,127.4319,105.9645,48.9443,40.08524,0.0038835,0.98504469,0.0000,04/07.9216/2009,2000,g 11.5,4.0 # From MPC 66204 C/2009 F1 (Larson),e,171.3757,357.9524,219.5797,104.6458,0.0009207,0.98250686,0.0000,06/25.8733/2009,2000,g 15.0,4.0 # From MPC 66204 C/2009 F2 (McNaught),e,59.3585,214.0564,336.3592,350.6153,0.0001501,0.98324317,0.0000,11/14.2727/2009,2000,g 6.0,4.0 # From MPC 66204 C/2009 F4 (McNaught),h,12/31.3158/2011,79.3367,53.5674,260.3517,1.003682,5.455070,2000,3.0,4.0 # From MPC 66204 C/2009 F5 (McNaught),e,84.9973,219.0683,297.3562,79.35835,0.0013942,0.97170916,0.0000,11/04.7970/2008,2000,g 10.0,4.0 # From MPC 67147 C/2009 F6 (Yi-SWAN),e,85.7605,278.6763,129.7685,512.0017,0.0000851,0.99751156,0.0000,05/07.4311/2009,2000,g 6.0,4.0 # From MPC 66466 C/2009 G1 (STEREO),e,108.3098,120.6388,175.4547,500.5883,0.0000880,0.99774479,0.0000,04/16.5059/2009,2000,g 9.0,4.0 # From MPC 66703 C/2009 K2 (Catalina),e,66.8209,123.8086,147.6901,1243,0.0000225,0.99738899,0.0000,02/07.5039/2010,2000,g 10.0,4.0 # From MPC 66205 C/2009 K3 (Beshore),p,01/09.266/2011,146.680,251.413,3.90156,0.032,2000,8.5,4.0 # From MPC 66703 C/2009 K4 (Gibbs),e,34.8264,30.1201,127.4612,42.24719,0.0035893,0.96333423,0.7129,01/04.0/2010,2000,g 13.0,4.0 # From MPC 66703 C/2009 K5 (McNaught),h,04/30.0188/2010,103.8817,257.8531,66.1637,1.000911,1.422558,2000,7.5,4.0 # From MPC 66704 P/2009 L2 (Yang-Gao),e,16.1568,259.2779,346.9670,3.419721,0.1558540,0.62108135,35.4155,01/04.0/2010,2000,g 15.0,4.0 # From MPC 67147 C/2009 O2 (Catalina),e,107.8591,310.2212,133.4932,249.4806,0.0002501,0.99722143,0.0000,03/24.2211/2010,2000,g 11.0,4.0 # From MPC 67147 P/2009 O3 (Hill),e,16.2178,183.7644,154.5450,7.818178,0.0450864,0.68663587,10.3891,01/04.0/2010,2000,g 12.5,4.0 # From MPC 67147 C/2009 O4 (Hill),h,01/01.2817/2010,95.8292,172.9388,223.7321,1.000903,2.563791,2000,10.0,4.0 # From MPC 67147 C/2009 P1 (Garradd),e,106.3370,325.8894,90.7059,13121,0.0000007,0.99988151,0.0000,12/25.0276/2011,2000,g 4.0,4.0 # From MPC 67147 C/2009 P2 (Boattini),h,02/10.6248/2010,163.4536,60.3723,76.0493,1.001636,6.543868,2000,6.0,4.0 # From MPC 67147 P/2009 Q1 (Hill),e,14.4382,174.0871,157.8435,5.534584,0.0756966,0.49611425,13.9427,01/04.0/2010,2000,g 11.5,4.0 # From MPC 67413 P/2009 Q4 (Boattini),e,10.9687,127.6676,320.0202,3.136835,0.1774053,0.57894344,7.9957,01/04.0/2010,2000,g 15.5,4.0 # From MPC 67413 P/2009 Q5 (McNaught),e,40.9058,160.1409,209.2689,7.461864,0.0483541,0.60887136,5.6791,01/04.0/2010,2000,g 10.0,4.0 # From MPC 67413 P/2009 QG31 (La Sagra),e,5.0554,346.2592,5.9191,3.573198,0.1459212,0.39890505,12.4909,01/04.0/2010,2000,g 14.0,4.0 # From MPC 67148 C/2009 R1 (McNaught),h,07/02.6345/2010,77.0248,322.6287,130.6999,1.000426,0.404913,2000,8.0,4.0 # From MPC 67413 P/2009 S1 (Gibbs),e,26.1114,157.9839,223.9776,3.924066,0.1267943,0.37816542,359.9866,08/04.0/2009,2000,g 13.0,4.0 # From MPC 67148 P/2009 S2 (McNaught),e,28.4490,121.6126,230.3770,4.160066,0.1161592,0.47027222,22.5772,01/04.0/2010,2000,g 14.0,4.0 # From MPC 67413 C/2009 S3 (Lemmon),p,12/10.343/2011,60.385,129.636,6.48092,225.114,2000,6.5,4.0 # From MPEC 2009-V14 P/2009 SK280 (Spacewatch-Hill),e,16.8710,36.3615,329.2744,4.770427,0.0945950,0.11780362,359.9404,05/31.0/2009,2000,g 11.0,4.0 # From MPEC 2009-V15 C/2009 T1 (McNaught),p,10/08.064/2009,89.910,282.508,6.22345,54.356,2000,6.5,4.0 # From MPEC 2009-V16 P/2009 T2 (La Sagra),e,28.1011,215.9864,215.4639,7.587774,0.0471555,0.76874634,359.9610,01/12.0/2010,2000,g 14.0,4.0 # From MPEC 2009-V17 C/2009 T3 (LINEAR),p,01/12.015/2010,148.743,32.432,2.28139,60.094,2000,12.5,4.0 # From MPC 67414 C/2009 U1 (Garradd),p,07/07.819/2010,68.944,6.404,2.96357,67.196,2000,10.5,4.0 # From MPEC 2009-V18 C/2009 U3 (Hill),p,03/20.019/2010,51.461,77.601,1.41510,49.332,2000,13.0,4.0 # From MPEC 2009-V19 P/2009 U4 (McNaught),e,10.104,55.573,260.100,5.19008,0.083357,0.6818005,359.975,09/09.0/2009,2000,g 14.0,4.0 # From MPC 67414 C/2009 U5 (Grauer),p,05/06.915/2010,25.302,19.408,6.18018,121.167,2000,7.0,4.0 # From MPEC 2009-V20 P/2009 U6 (LINEAR),e,14.653,112.599,309.276,3.47406,0.152212,0.5704867,359.923,08/09.0/2009,2000,g 13.0,4.0